UAL343 KCLT-KORD

Flight info

Callsign UAL343
Flight time 1h 30m
Altitude 30000
Route JOJJO5 DOOGE Q93 HEVAN BONNT VEECK5
Aircraft A319/M-SDE3FGHIRWY/LB1

Departure

Time 2026-05-05 16:10
Airport Charlotte Douglas International Airport (KCLT)

Arrival

Time 2026-05-05 17:40
Airport Chicago O'Hare International Airport (KORD)
Time Latitude Longitude Altitude Speed Heading
2026-05-05 15:46 35.22311 -80.94702 733 ft 0 kts 176°
2026-05-05 16:00 35.22325 -80.94703 731 ft 3 kts 200°
2026-05-05 16:00 35.22341 -80.94694 731 ft 2 kts 183°
2026-05-05 16:00 35.22357 -80.94694 732 ft 3 kts 156°
2026-05-05 16:01 35.22368 -80.94707 732 ft 3 kts 89°
2026-05-05 16:01 35.22366 -80.94731 733 ft 3 kts 83°
2026-05-05 16:01 35.22364 -80.94745 724 ft 2 kts 86°
2026-05-05 16:01 35.22363 -80.94769 728 ft 3 kts 86°
2026-05-05 16:02 35.22361 -80.94793 730 ft 3 kts 86°
2026-05-05 16:02 35.22359 -80.94818 731 ft 3 kts 86°
2026-05-05 16:02 35.22358 -80.94843 733 ft 3 kts 86°
2026-05-05 16:02 35.22356 -80.94866 733 ft 2 kts 86°
2026-05-05 16:03 35.22356 -80.94880 733 ft 3 kts 82°
2026-05-05 16:03 35.22350 -80.94903 731 ft 3 kts 51°
2026-05-05 16:03 35.22336 -80.94917 731 ft 3 kts
2026-05-05 16:03 35.22325 -80.94918 731 ft 2 kts 356°
2026-05-05 16:04 35.22306 -80.94916 732 ft 2 kts 356°
2026-05-05 16:04 35.22301 -80.94916 732 ft 1 kts 356°
2026-05-05 16:06 35.22302 -80.94916 733 ft 1 kts 356°
2026-05-05 16:06 35.22320 -80.94917 732 ft 5 kts 356°
2026-05-05 16:07 35.22347 -80.94945 733 ft 6 kts 273°
2026-05-05 16:07 35.22369 -80.94997 733 ft 9 kts 334°
2026-05-05 16:07 35.22436 -80.95017 733 ft 11 kts 309°
2026-05-05 16:07 35.22474 -80.95099 734 ft 13 kts 344°
2026-05-05 16:08 35.22577 -80.95105 734 ft 17 kts 355°
2026-05-05 16:08 35.22699 -80.95120 734 ft 17 kts 340°
2026-05-05 16:08 35.22729 -80.95242 738 ft 14 kts 264°
2026-05-05 16:08 35.22702 -80.95315 741 ft 9 kts 191°
2026-05-05 16:09 35.22681 -80.95314 741 ft 0 kts 175°
2026-05-05 16:09 35.22536 -80.95295 741 ft 50 kts 175°
2026-05-05 16:09 35.21989 -80.95255 741 ft 107 kts 175°
2026-05-05 16:10 35.21069 -80.95171 783 ft 153 kts 178°
2026-05-05 16:10 35.20024 -80.95064 1444 ft 150 kts 179°
2026-05-05 16:10 35.18988 -80.95229 2155 ft 152 kts 203°
2026-05-05 16:10 35.18154 -80.96062 2669 ft 167 kts 236°
2026-05-05 16:11 35.17894 -80.97543 2962 ft 196 kts 270°
2026-05-05 16:11 35.21051 -81.02110 4795 ft 265 kts 315°
2026-05-05 16:12 35.22458 -81.03610 5795 ft 272 kts 315°
2026-05-05 16:12 35.25374 -81.06745 7733 ft 285 kts 315°
2026-05-05 16:13 35.29920 -81.11712 10356 ft 308 kts 314°
2026-05-05 16:13 35.31572 -81.13535 10645 ft 331 kts 314°
2026-05-05 16:13 35.33339 -81.15483 11031 ft 349 kts 314°
2026-05-05 16:14 35.37007 -81.19524 12529 ft 358 kts 315°
2026-05-05 16:14 35.40740 -81.23634 14119 ft 364 kts 315°
2026-05-05 16:15 35.44423 -81.27876 15500 ft 367 kts 308°
2026-05-05 16:15 35.47417 -81.32948 16919 ft 370 kts 303°
2026-05-05 16:16 35.50422 -81.38165 18347 ft 375 kts 303°
2026-05-05 16:16 35.53458 -81.43432 19569 ft 381 kts 303°
2026-05-05 16:17 35.57008 -81.48322 20784 ft 391 kts 320°
2026-05-05 16:17 35.59205 -81.50300 21353 ft 394 kts 321°
2026-05-05 16:18 35.63678 -81.54278 22455 ft 399 kts 321°
2026-05-05 16:18 35.65934 -81.56276 22983 ft 401 kts 322°
2026-05-05 16:18 35.70514 -81.60282 23987 ft 407 kts 322°
2026-05-05 16:19 35.72832 -81.62298 24443 ft 408 kts 322°
2026-05-05 16:19 35.75154 -81.64321 24904 ft 410 kts 322°
2026-05-05 16:19 35.79810 -81.68396 25816 ft 412 kts 322°
2026-05-05 16:20 35.84495 -81.72509 26712 ft 415 kts 322°
2026-05-05 16:20 35.89202 -81.76656 27559 ft 417 kts 322°
2026-05-05 16:21 35.93940 -81.80836 28328 ft 420 kts 322°
2026-05-05 16:22 36.01105 -81.87156 29426 ft 425 kts 322°
2026-05-05 16:22 36.05921 -81.91410 30022 ft 424 kts 321°
2026-05-05 16:23 36.10662 -81.95608 30032 ft 416 kts 322°
2026-05-05 16:23 36.17704 -82.01867 30027 ft 415 kts 321°
2026-05-05 16:24 36.22392 -82.06033 30027 ft 414 kts 321°
2026-05-05 16:25 36.29423 -82.12283 30037 ft 414 kts 321°
2026-05-05 16:25 36.36428 -82.18534 30058 ft 413 kts 321°
2026-05-05 16:26 36.45730 -82.26861 30074 ft 413 kts 321°
2026-05-05 16:27 36.50389 -82.31034 30077 ft 413 kts 321°
2026-05-05 16:27 36.55044 -82.35220 30080 ft 413 kts 320°
2026-05-05 16:28 36.59708 -82.39410 30062 ft 413 kts 320°
2026-05-05 16:28 36.64369 -82.43605 30049 ft 414 kts 320°
2026-05-05 16:29 36.69032 -82.47820 30026 ft 414 kts 320°
2026-05-05 16:29 36.73697 -82.52034 30027 ft 414 kts 320°
2026-05-05 16:30 36.78365 -82.56254 30043 ft 415 kts 320°
2026-05-05 16:30 36.83031 -82.60492 30058 ft 415 kts 319°
2026-05-05 16:31 36.87586 -82.64893 30066 ft 414 kts 317°
2026-05-05 16:31 36.91334 -82.68611 30072 ft 413 kts 317°
2026-05-05 16:32 36.95859 -82.73048 30063 ft 413 kts 318°
2026-05-05 16:32 37.00400 -82.77462 30058 ft 413 kts 318°
2026-05-05 16:33 37.04940 -82.81876 30042 ft 413 kts 318°
2026-05-05 16:33 37.09462 -82.86300 30024 ft 412 kts 317°
2026-05-05 16:34 37.13883 -82.90856 30001 ft 411 kts 316°
2026-05-05 16:34 37.18253 -82.95465 29999 ft 411 kts 316°
2026-05-05 16:35 37.22634 -83.00070 30006 ft 410 kts 316°
2026-05-05 16:35 37.27024 -83.04638 30007 ft 410 kts 316°
2026-05-05 16:36 37.31511 -83.09089 30021 ft 410 kts 317°
2026-05-05 16:36 37.36021 -83.13492 30034 ft 410 kts 317°
2026-05-05 16:37 37.40518 -83.17919 30035 ft 410 kts 317°
2026-05-05 16:37 37.44983 -83.22358 30040 ft 409 kts 317°
2026-05-05 16:38 37.49446 -83.26803 30034 ft 409 kts 317°
2026-05-05 16:38 37.53903 -83.31253 30013 ft 409 kts 317°
2026-05-05 16:39 37.58357 -83.35706 30003 ft 409 kts 317°
2026-05-05 16:39 37.62817 -83.40162 30011 ft 409 kts 317°
2026-05-05 16:40 37.67277 -83.44619 29995 ft 409 kts 317°
2026-05-05 16:40 37.71732 -83.49085 29984 ft 408 kts 317°
2026-05-05 16:41 37.76145 -83.53533 29977 ft 408 kts 317°
2026-05-05 16:41 37.80585 -83.58011 29966 ft 408 kts 317°
2026-05-05 16:42 37.85022 -83.62488 29953 ft 408 kts 317°
2026-05-05 16:42 37.89460 -83.66963 29959 ft 408 kts 317°
2026-05-05 16:43 37.93887 -83.71442 29960 ft 407 kts 317°
2026-05-05 16:43 37.98312 -83.75927 29968 ft 407 kts 317°
2026-05-05 16:44 38.02736 -83.80410 29973 ft 407 kts 317°
2026-05-05 16:44 38.07149 -83.84897 29983 ft 407 kts 317°
2026-05-05 16:45 38.11566 -83.89395 29985 ft 407 kts 317°
2026-05-05 16:45 38.15978 -83.93884 29987 ft 406 kts 317°
2026-05-05 16:46 38.20387 -83.98376 29979 ft 406 kts 317°
2026-05-05 16:46 38.24782 -84.02874 29971 ft 405 kts 317°
2026-05-05 16:47 38.29168 -84.07368 29957 ft 405 kts 317°
2026-05-05 16:47 38.33558 -84.11862 29948 ft 405 kts 317°
2026-05-05 16:48 38.37933 -84.16366 29927 ft 405 kts 317°
2026-05-05 16:48 38.42333 -84.20853 29925 ft 405 kts 318°
2026-05-05 16:49 38.46816 -84.25214 29915 ft 405 kts 319°
2026-05-05 16:49 38.51315 -84.29564 29919 ft 405 kts 318°
2026-05-05 16:50 38.55794 -84.33927 29900 ft 405 kts 318°
2026-05-05 16:50 38.60271 -84.38319 29899 ft 405 kts 318°
2026-05-05 16:51 38.64713 -84.42687 29893 ft 405 kts 318°
2026-05-05 16:51 38.69174 -84.47083 29895 ft 405 kts 318°
2026-05-05 16:52 38.73636 -84.51485 29894 ft 405 kts 318°
2026-05-05 16:52 38.78096 -84.55888 29895 ft 404 kts 318°
2026-05-05 16:53 38.82541 -84.60282 29896 ft 404 kts 318°
2026-05-05 16:53 38.86998 -84.64694 29899 ft 404 kts 317°
2026-05-05 16:54 38.91438 -84.69099 29899 ft 403 kts 317°
2026-05-05 16:54 38.95873 -84.73509 29908 ft 403 kts 317°
2026-05-05 16:55 39.00300 -84.77919 29897 ft 402 kts 317°
2026-05-05 16:55 39.04725 -84.82332 29896 ft 402 kts 317°
2026-05-05 16:56 39.09147 -84.86742 29892 ft 402 kts 317°
2026-05-05 16:56 39.13565 -84.91151 29885 ft 402 kts 317°
2026-05-05 16:57 39.17976 -84.95574 29884 ft 401 kts 317°
2026-05-05 16:57 39.22375 -85.00002 29884 ft 400 kts 317°
2026-05-05 16:58 39.26760 -85.04420 29882 ft 399 kts 317°
2026-05-05 16:58 39.31141 -85.08829 29886 ft 399 kts 317°
2026-05-05 16:59 39.35674 -85.12978 29878 ft 405 kts 326°
2026-05-05 16:59 39.40976 -85.15684 29884 ft 411 kts 333°
2026-05-05 17:00 39.46311 -85.18199 29877 ft 410 kts 333°
2026-05-05 17:00 39.51662 -85.20745 29866 ft 410 kts 332°
2026-05-05 17:01 39.57007 -85.23300 29867 ft 409 kts 332°
2026-05-05 17:01 39.62353 -85.25844 29861 ft 409 kts 333°
2026-05-05 17:02 39.67697 -85.28392 29852 ft 409 kts 333°
2026-05-05 17:02 39.73041 -85.30948 29871 ft 410 kts 333°
2026-05-05 17:03 39.78395 -85.33517 29867 ft 410 kts 333°
2026-05-05 17:03 39.83761 -85.36093 29866 ft 411 kts 333°
2026-05-05 17:04 39.89136 -85.38674 29724 ft 410 kts 334°
2026-05-05 17:04 39.91826 -85.39964 28721 ft 414 kts 334°
2026-05-05 17:04 39.94541 -85.41275 28108 ft 419 kts 334°
2026-05-05 17:05 39.97288 -85.42606 27894 ft 423 kts 334°
2026-05-05 17:05 40.00054 -85.43946 27880 ft 425 kts 334°
2026-05-05 17:05 40.02830 -85.45291 27890 ft 427 kts 335°
2026-05-05 17:05 40.05619 -85.46639 27890 ft 428 kts 335°
2026-05-05 17:06 40.08424 -85.47991 27890 ft 429 kts 335°
2026-05-05 17:06 40.11222 -85.49341 27880 ft 430 kts 335°
2026-05-05 17:06 40.14026 -85.50698 27894 ft 430 kts 335°
2026-05-05 17:06 40.16843 -85.52065 27882 ft 431 kts 335°
2026-05-05 17:07 40.19656 -85.53430 27895 ft 432 kts 335°
2026-05-05 17:07 40.22473 -85.54798 27888 ft 432 kts 335°
2026-05-05 17:07 40.25289 -85.56165 27877 ft 433 kts 335°
2026-05-05 17:07 40.28115 -85.57540 27893 ft 433 kts 335°
2026-05-05 17:08 40.30943 -85.58922 27889 ft 434 kts 335°
2026-05-05 17:08 40.33768 -85.60304 27891 ft 434 kts 335°
2026-05-05 17:08 40.36570 -85.61674 27893 ft 435 kts 335°
2026-05-05 17:08 40.39412 -85.63064 27893 ft 436 kts 335°
2026-05-05 17:09 40.42252 -85.64450 27898 ft 436 kts 335°
2026-05-05 17:09 40.45097 -85.65843 27893 ft 436 kts 335°
2026-05-05 17:09 40.47943 -85.67240 27892 ft 437 kts 335°
2026-05-05 17:09 40.50807 -85.68583 27901 ft 438 kts 338°
2026-05-05 17:10 40.53724 -85.69770 27893 ft 440 kts 340°
2026-05-05 17:10 40.56679 -85.70844 27897 ft 441 kts 341°
2026-05-05 17:10 40.59650 -85.71860 27898 ft 442 kts 341°
2026-05-05 17:10 40.62630 -85.72867 27888 ft 442 kts 341°
2026-05-05 17:11 40.65605 -85.73890 27893 ft 442 kts 341°
2026-05-05 17:11 40.68575 -85.74943 27820 ft 442 kts 341°
2026-05-05 17:11 40.71538 -85.76025 27545 ft 442 kts 340°
2026-05-05 17:11 40.74498 -85.77123 27035 ft 439 kts 340°
2026-05-05 17:12 40.77431 -85.78221 26212 ft 437 kts 340°
2026-05-05 17:12 40.80342 -85.79345 25436 ft 433 kts 338°
2026-05-05 17:12 40.83049 -85.80964 24671 ft 425 kts 326°
2026-05-05 17:12 40.85436 -85.83206 23940 ft 418 kts 316°
2026-05-05 17:13 40.87427 -85.85964 23501 ft 414 kts 306°
2026-05-05 17:13 40.89021 -85.89128 23226 ft 413 kts 297°
2026-05-05 17:13 40.90227 -85.92549 22898 ft 410 kts 292°
2026-05-05 17:13 40.91362 -85.95996 22578 ft 407 kts 291°
2026-05-05 17:14 40.92480 -85.99422 22266 ft 405 kts 291°
2026-05-05 17:14 40.93214 -86.01690 22056 ft 403 kts 291°
2026-05-05 17:14 40.94311 -86.05093 21748 ft 401 kts 291°
2026-05-05 17:14 40.95399 -86.08476 21431 ft 398 kts 291°
2026-05-05 17:15 40.96479 -86.11838 21129 ft 396 kts 291°
2026-05-05 17:15 40.97554 -86.15180 20816 ft 394 kts 291°
2026-05-05 17:15 40.98623 -86.18501 20506 ft 391 kts 291°
2026-05-05 17:15 40.99689 -86.21803 20199 ft 389 kts 291°
2026-05-05 17:16 41.00751 -86.25091 19895 ft 387 kts 291°
2026-05-05 17:16 41.01808 -86.28360 19594 ft 384 kts 291°
2026-05-05 17:16 41.02852 -86.31600 19289 ft 382 kts 290°
2026-05-05 17:16 41.03888 -86.34833 18990 ft 380 kts 290°
2026-05-05 17:17 41.04918 -86.38050 18687 ft 378 kts 290°
2026-05-05 17:17 41.05944 -86.41251 18389 ft 376 kts 290°
2026-05-05 17:17 41.06963 -86.44433 18052 ft 374 kts 290°
2026-05-05 17:17 41.07975 -86.47599 17678 ft 372 kts 290°
2026-05-05 17:18 41.08982 -86.50749 17389 ft 371 kts 290°
2026-05-05 17:18 41.09984 -86.53894 17080 ft 369 kts 290°
2026-05-05 17:18 41.10980 -86.57021 16807 ft 367 kts 290°
2026-05-05 17:18 41.11972 -86.60136 16545 ft 366 kts 290°
2026-05-05 17:19 41.13067 -86.63180 16296 ft 367 kts 296°
2026-05-05 17:19 41.14309 -86.66133 16133 ft 366 kts 296°
2026-05-05 17:19 41.15541 -86.69073 15876 ft 365 kts 296°
2026-05-05 17:19 41.16772 -86.72019 15591 ft 364 kts 295°
2026-05-05 17:20 41.17998 -86.74952 15311 ft 362 kts 295°
2026-05-05 17:20 41.19216 -86.77864 15028 ft 361 kts 295°
2026-05-05 17:20 41.20433 -86.80769 14753 ft 359 kts 295°
2026-05-05 17:20 41.21648 -86.83666 14467 ft 358 kts 295°
2026-05-05 17:21 41.22856 -86.86555 14188 ft 357 kts 295°
2026-05-05 17:21 41.24055 -86.89432 13911 ft 355 kts 295°
2026-05-05 17:21 41.25245 -86.92301 13615 ft 354 kts 295°
2026-05-05 17:22 41.27610 -86.98010 13069 ft 351 kts 295°
2026-05-05 17:22 41.28784 -87.00840 12793 ft 349 kts 295°
2026-05-05 17:22 41.29952 -87.03651 12521 ft 342 kts 295°
2026-05-05 17:22 41.31075 -87.06345 12390 ft 324 kts 295°
2026-05-05 17:23 41.32130 -87.08879 12262 ft 303 kts 295°
2026-05-05 17:23 41.33125 -87.11288 12135 ft 289 kts 294°
2026-05-05 17:23 41.34070 -87.13590 11949 ft 279 kts 294°
2026-05-05 17:23 41.34993 -87.15833 11616 ft 275 kts 294°
2026-05-05 17:24 41.35921 -87.18052 11248 ft 274 kts 297°
2026-05-05 17:24 41.37095 -87.20039 11032 ft 274 kts 309°
2026-05-05 17:24 41.38512 -87.21753 10970 ft 276 kts 312°
2026-05-05 17:24 41.39944 -87.23462 10573 ft 276 kts 312°
2026-05-05 17:25 41.41365 -87.25156 10330 ft 273 kts 312°
2026-05-05 17:25 41.42301 -87.26275 10189 ft 272 kts 312°
2026-05-05 17:25 41.44167 -87.28504 9917 ft 271 kts 311°
2026-05-05 17:25 41.45567 -87.30182 9714 ft 271 kts 311°
2026-05-05 17:26 41.46982 -87.31885 9499 ft 270 kts 311°
2026-05-05 17:26 41.48355 -87.33541 9304 ft 269 kts 311°
2026-05-05 17:26 41.49748 -87.35217 9101 ft 269 kts 311°
2026-05-05 17:26 41.51239 -87.36739 8910 ft 273 kts 320°
2026-05-05 17:27 41.52817 -87.38147 8693 ft 272 kts 320°
2026-05-05 17:27 41.54395 -87.39553 8504 ft 272 kts 320°
2026-05-05 17:27 41.55964 -87.40956 8304 ft 271 kts 320°
2026-05-05 17:27 41.57524 -87.42354 8106 ft 271 kts 320°
2026-05-05 17:28 41.59088 -87.43756 7907 ft 270 kts 320°
2026-05-05 17:28 41.60644 -87.45154 7702 ft 269 kts 320°
2026-05-05 17:28 41.62262 -87.46409 7464 ft 274 kts 334°
2026-05-05 17:28 41.64145 -87.46962 7124 ft 279 kts 345°
2026-05-05 17:29 41.66060 -87.47348 6804 ft 278 kts 346°
2026-05-05 17:29 41.67970 -87.47724 6517 ft 276 kts 346°
2026-05-05 17:29 41.69835 -87.48093 6389 ft 266 kts 346°
2026-05-05 17:29 41.71630 -87.48440 6234 ft 253 kts 346°
2026-05-05 17:30 41.73318 -87.48753 6080 ft 238 kts 346°
2026-05-05 17:30 41.74929 -87.49056 5929 ft 232 kts 346°
2026-05-05 17:30 41.76521 -87.49362 5791 ft 231 kts 346°
2026-05-05 17:30 41.78104 -87.49667 5635 ft 230 kts 346°
2026-05-05 17:31 41.79703 -87.49984 5475 ft 229 kts 346°
2026-05-05 17:31 41.81275 -87.50302 5292 ft 228 kts 346°
2026-05-05 17:31 41.82824 -87.50622 5137 ft 227 kts 346°
2026-05-05 17:31 41.84387 -87.50952 4996 ft 227 kts 346°
2026-05-05 17:32 41.85945 -87.51288 4842 ft 227 kts 346°
2026-05-05 17:32 41.87499 -87.51628 4692 ft 226 kts 346°
2026-05-05 17:32 41.89048 -87.51975 4534 ft 226 kts 346°
2026-05-05 17:32 41.90594 -87.52323 4386 ft 225 kts 346°
2026-05-05 17:33 41.92138 -87.52672 4281 ft 225 kts 346°
2026-05-05 17:33 41.93681 -87.53023 4182 ft 225 kts 346°
2026-05-05 17:33 41.95155 -87.53604 4073 ft 218 kts 324°
2026-05-05 17:33 41.96173 -87.55020 4004 ft 209 kts 295°
2026-05-05 17:34 41.96566 -87.56874 4016 ft 206 kts 271°
2026-05-05 17:34 41.96574 -87.58796 4016 ft 206 kts 268°
2026-05-05 17:34 41.96573 -87.60698 4009 ft 196 kts 269°
2026-05-05 17:34 41.96575 -87.62447 4005 ft 180 kts 269°
2026-05-05 17:35 41.96576 -87.64110 4083 ft 178 kts 267°
2026-05-05 17:35 41.96577 -87.65754 4018 ft 175 kts 269°
2026-05-05 17:35 41.96581 -87.67387 3896 ft 175 kts 269°
2026-05-05 17:35 41.96581 -87.69012 3700 ft 174 kts 269°
2026-05-05 17:36 41.96581 -87.70643 3482 ft 174 kts 268°
2026-05-05 17:36 41.96582 -87.72265 3253 ft 174 kts 268°
2026-05-05 17:36 41.96582 -87.73879 3019 ft 170 kts 268°
2026-05-05 17:36 41.96583 -87.75411 2800 ft 159 kts 268°
2026-05-05 17:37 41.96583 -87.76834 2591 ft 141 kts 267°
2026-05-05 17:37 41.96583 -87.77672 2468 ft 131 kts 267°
2026-05-05 17:37 41.96583 -87.79253 2237 ft 122 kts 268°
2026-05-05 17:37 41.96583 -87.80384 2105 ft 120 kts 268°
2026-05-05 17:38 41.96586 -87.81511 1952 ft 121 kts 267°
2026-05-05 17:38 41.96591 -87.82637 1769 ft 120 kts 266°
2026-05-05 17:38 41.96578 -87.83758 1551 ft 119 kts 268°
2026-05-05 17:38 41.96580 -87.84868 1412 ft 119 kts 271°
2026-05-05 17:39 41.96570 -87.85981 1192 ft 119 kts 269°
2026-05-05 17:39 41.96577 -87.87094 1032 ft 121 kts 269°
2026-05-05 17:39 41.96575 -87.88219 830 ft 118 kts 271°
2026-05-05 17:39 41.96576 -87.89298 705 ft 117 kts 272°
2026-05-05 17:40 41.96577 -87.90268 669 ft 84 kts 270°
2026-05-05 17:40 41.96575 -87.90871 669 ft 52 kts 270°
2026-05-05 17:40 41.96599 -87.91324 668 ft 39 kts 289°
2026-05-05 17:40 41.96674 -87.91507 667 ft 9 kts 304°
2026-05-05 17:41 41.96722 -87.91526 669 ft 9 kts 48°
2026-05-05 17:41 41.96738 -87.91439 669 ft 11 kts 89°
2026-05-05 17:41 41.96739 -87.91324 669 ft 14 kts 89°
2026-05-05 17:41 41.96738 -87.91181 669 ft 18 kts 90°
2026-05-05 17:42 41.96738 -87.91004 669 ft 20 kts 90°
2026-05-05 17:42 41.96738 -87.90803 669 ft 23 kts 90°
2026-05-05 17:42 41.96739 -87.90577 668 ft 25 kts 90°
2026-05-05 17:42 41.96739 -87.90330 669 ft 28 kts 90°
2026-05-05 17:43 41.96739 -87.90066 669 ft 29 kts 90°
2026-05-05 17:43 41.96740 -87.89783 669 ft 31 kts 90°
2026-05-05 17:43 41.96741 -87.89483 669 ft 34 kts 89°
2026-05-05 17:43 41.96745 -87.89199 666 ft 28 kts 75°
2026-05-05 17:44 41.96866 -87.89067 668 ft 21 kts 359°
2026-05-05 17:44 41.97027 -87.89070 669 ft 25 kts
2026-05-05 17:44 41.97188 -87.89096 669 ft 19 kts 315°
2026-05-05 17:44 41.97195 -87.89223 669 ft 14 kts 273°
2026-05-05 17:45 41.97195 -87.89382 669 ft 21 kts 269°
2026-05-05 17:45 41.97233 -87.89553 669 ft 10 kts 319°
2026-05-05 17:45 41.97299 -87.89640 668 ft 14 kts 274°
2026-05-05 17:45 41.97257 -87.89764 669 ft 17 kts 240°
2026-05-05 17:46 41.97206 -87.89928 669 ft 21 kts 263°
2026-05-05 17:46 41.97205 -87.90129 669 ft 23 kts 271°
2026-05-05 17:46 41.97206 -87.90331 669 ft 21 kts 270°
2026-05-05 17:46 41.97213 -87.90533 669 ft 23 kts 274°
2026-05-05 17:47 41.97246 -87.90751 668 ft 25 kts 305°
2026-05-05 17:47 41.97367 -87.90923 669 ft 27 kts 317°
2026-05-05 17:47 41.97502 -87.91054 669 ft 19 kts
2026-05-05 17:47 41.97548 -87.90950 669 ft 11 kts 70°
2026-05-05 17:48 41.97533 -87.90879 669 ft 8 kts 160°
2026-05-05 17:48 41.97507 -87.90873 669 ft 2 kts 169°
2026-05-05 17:48 41.97505 -87.90872 669 ft 0 kts 169°